User: anonymous   Login
Location: Campillo
(40.8621°N, 4.2488°W)
Time: 23:41:50
(UTC+00:00)
Language:

NOSS 3-4 (A) - Orbit

View from above orbital plane
View from above orbital plane
View from above satellite
View from above satellite

Ground track
Ground track

The orbit data is extracted from the following two-line orbital elements,

1 31701U 07027A   21202.93975306 0.00000000  00000-0  00000-0 0    00
2 31701  63.3849 227.1204 0314824  20.3029 339.6970 13.40813321    06
Epoch (UTC): 21 July 2021 22:33:14
Eccentricity: 0.0314824
inclination: 63.3849°
perigee height: 870 km
apogee height: 1342 km
right ascension of ascending node: 227.1204°
argument of perigee: 20.3029°
revolutions per day: 13.40813321
mean anomaly at epoch: 339.6970°
orbit number at epoch: 0

The dashed part of the orbit path shows where the satellite is in the earth's shadow,  

DLR